Powrót do katalogu

STARLINK-6343

AktywnyŁącznośćVLEO
NORAD 57362·PAYLOAD·🇺🇸 United States

Wystrzelony Jul 16, 2023 z Cape Canaveral Space Force Station

Loading…

Następne Przeloty (najbliższe 24 godziny)

TLE

ŚwieżeSource: CelesTrak SupGP

Epoka: Sep 14, 2026, 21:03 UTC

1 57362C 23099AL  26257.87756944  .00026779  00000+0  96969-3 0  2577
2 57362  43.0006 252.9790 0001636 267.6164 187.1820 15.27572780    12

Śledź STARLINK-6343 w czasie rzeczywistym z AllMySat

Download on the App Store